Simultaneous Nadir Overpasses (SNOs) Predictions

Prediction of SNOs between LANDSAT-8 and NOAA-19 Satellite Orbit:

Table of predicted SNOs for the next 14.0 days since TLE Epoch: 5/4/2019
Index Date (LANDSAT-8) Time (LANDSAT-8) Lat,Lon (LANDSAT-8) SZA (LANDSAT-8 ) Date (NOAA-19) Time (NOAA-19) Lat,Lon (NOAA-19) SZA (NOAA-19 ) Distance(km) Time Diff (sec)
1 05/05/2019 04:20:29 -78.72, -46.10 116.78 05/05/2019 04:20:16 -78.70, -46.14 116.81 3.02 13
2 05/07/2019 09:54:15 78.70, 50.33 62.57 05/07/2019 09:53:48 78.71, 50.49 62.58 3.53 27
3 05/07/2019 10:43:43 -78.67,-142.17 117.48 05/07/2019 10:44:43 -78.69,-142.10 117.44 2.35 60
4 05/09/2019 15:28:02 -78.72, 146.98 118.02 05/09/2019 15:27:11 -78.74, 146.98 118.01 2.94 51
5 05/09/2019 16:17:28 78.71, -45.44 61.96 05/09/2019 16:18:15 78.71, -45.58 61.98 3.14 47
6 05/11/2019 21:01:48 78.72,-116.43 61.42 05/11/2019 21:00:42 78.75,-116.37 61.43 3.64 66
7 05/11/2019 21:51:16 -78.70, 51.09 118.63 05/11/2019 21:51:37 -78.70, 51.26 118.61 3.79 21
8 05/14/2019 03:25:02 78.72, 147.75 60.85 05/14/2019 03:25:08 78.73, 147.77 60.86 1.00 6
9 05/16/2019 08:58:50 -78.75,-115.52 119.64 05/16/2019 08:58:32 -78.75,-115.66 119.65 3.19 18




NCC Satellite Simultaneous Nadir Overpasses (SNOs) Prediction Service
